This demonstration page uses our WeatherBlox Daily Observations layout. Learn more.

Left ArrowRight Arrow

Hourly Observations for February 2, 2022

Temp ( °F °C ) Dew Point ( °F °C ) Humidity (%) Winds ( mph kmh ) Pressure ( in mb ) Visibility ( mi km ) Precip ( " mm )
12:56 am 00:56 Mostly Cloudy 20 -6.6 0 -17.7 41 41 NNE 12 19 30.37 1029 10 16 0.00 0.00
1:56 am 01:56 Cloudy 19 -7.4 -3 -19.3 38 38 NNE 13 20 30.39 1029 10 16 0.00 0.00
2:56 am 02:56 Cloudy 18 -7.9 -3 -19.2 40 40 NNE 12 19 30.40 1029 10 16 0.00 0.00
3:56 am 03:56 Cloudy 17 -8.5 -3 -19.2 42 42 N 14 22 30.39 1029 10 16 0.00 0.00
4:56 am 04:56 Mostly Cloudy 15 -9.3 -4 -20.2 41 41 NNE 10 17 30.42 1030 10 16 0.00 0.00
5:56 am 05:56 Mostly Cloudy 14 -10 -2 -19 48 48 N 13 20 30.45 1031 10 16 0.00 0.00
6:56 am 06:56 Mostly Cloudy 13 -10.4 -1 -18.6 51 51 NNE 9 15 30.46 1031 10 16 0.00 0.00
7:56 am 07:56 Partly Cloudy 12 -11.3 -3 -19.2 52 52 N 12 19 30.49 1032 10 16 0.00 0.00
8:56 am 08:56 undefined 11 -11.7 -6 -21.3 45 45 NNE 10 17 30.54 1034 10 16 0.00 0.00
9:56 am 09:56 Mostly Sunny 13 -10.3 -4 -20 45 45 N 14 22 30.56 1035 10 16 0.00 0.00
10:56 am 10:56 Sunny 14 -10 -7 -21.4 39 39 N 15 24 30.57 1035 9 14 0.00 0.00
11:56 am 11:56 undefined 17 -8.4 -7 -21.8 33 33 NNE 14 22 30.57 1035 10 16 0.00 0.00
12:56 pm 12:56 Mostly Cloudy 17 -8.2 -8 -22 32 32 NNE 14 22 30.56 1035 10 16 0.00 0.00
1:56 pm 13:56 Cloudy 19 -7.5 -8 -22.1 30 30 N 15 24 30.55 1035 10 16 0.00 0.00
2:56 pm 14:56 undefined 18 -7.8 -9 -22.8 29 29 NNE 13 20 30.55 1035 10 16 0.00 0.00
3:56 pm 15:56 Mostly Sunny 18 -7.8 -8 -22 31 31 N 10 17 30.56 1035 10 16 0.00 0.00
4:56 pm 16:56 Mostly Cloudy 17 -8.4 -8 -22.2 32 32 NNE 12 19 30.58 1035 10 16 0.00 0.00
5:56 pm 17:56 Partly Cloudy 15 -9.6 -9 -22.6 34 34 NNE 10 17 30.59 1036 10 16 0.00 0.00
6:56 pm 18:56 Mostly Clear 13 -10.5 -9 -22.7 36 36 NNE 9 15 30.62 1037 10 16 0.00 0.00
7:56 pm 19:56 Mostly Cloudy 11 -11.5 -9 -22.5 40 40 NNE 8 13 30.64 1038 10 16 0.00 0.00
8:56 pm 20:56 Mostly Cloudy 10 -12.4 -12 -24.5 36 36 NNE 14 22 30.66 1038 10 16 0.00 0.00
9:56 pm 21:56 Mostly Cloudy 9 -13 -10 -23.3 42 42 NNE 9 15 30.68 1039 10 16 0.00 0.00
10:56 pm 22:56 Mostly Cloudy 8 -13.5 -10 -23.5 43 43 NNE 8 13 30.67 1039 10 16 0.00 0.00
11:56 pm 23:56 Mostly Cloudy 7 -14.1 -13 -24.8 40 40 N 10 17 30.68 1039 10 16 0.00 0.00

Powered by AerisWeather